Starlink 4067

operational
NORAD ID: 52668 Int'l Des: 2022-053 Owner: SPXS Country: US Constellation: starlink
LEOCIRCULAR

关于 Starlink 4067

正在加载描述...

实时位置

正在加载3D地球...

即将过境

高度历史

Altitude vs Time

uPlot chart will show altitude changes over time

两行轨道根数

1 52668U 22053N 25349.80553940 -.00000193 00000-0 59447-5 0 9994
2 52668 53.2159 170.6893 0000538 67.2595 292.8454 15.08835348198386
Epoch: Dec 15, 2025 • Age: 30 hours

当前状态

高度 556.9 km
速度 7.58 km/s
星下点 -49.08°S, 1.68°E
发射日期 May 18, 2022
运行时间 3.5 years
类型 internet

技术详情

分类 Payload
质量 297.00 kg
干质量 275.00 kg
总质量 297.00 kg
长度 0.20 m
直径 2.80 m
跨度 9.00 m
形状 Box + pan
制造商 SPXS
平台类型 Starlink
阶段状态 In Orbit
所有者/国家 SPXS/US

大型星座

Loading constellations...